User: anonymous   Login
Location: Unspecified
(0.0000°N, 0.0000°E)
Time: 20:24:50
(UTC+00:00)
Language:

BEESAT 4 - Orbit

View from above orbital plane
View from above orbital plane
View from above satellite
View from above satellite

Ground track
Ground track

The orbit data is extracted from the following two-line orbital elements,

1 41619U 16040W   22268.09648668  .00020204  00000-0  62285-3 0  9993
2 41619  97.2070 316.1700 0010599 116.9703 243.2624 15.33575085335980
Epoch (UTC): 25 September 2022 02:18:56
Eccentricity: 0.0010599
inclination: 97.2070°
perigee height: 458 km
apogee height: 472 km
right ascension of ascending node: 316.1700°
argument of perigee: 116.9703°
revolutions per day: 15.33575085
mean anomaly at epoch: 243.2624°
orbit number at epoch: 33598

The dashed part of the orbit path shows where the satellite is in the earth's shadow,  

DLR